Location: Dampvalley
(47.9094°N, 6.1967°E)
Time: 16:59:55
(UTC+00:00)

X-37B - Pass Details

Date: 23 September 2021
Orbit: 385 x 389 km, 45.0° (Epoch: 13 October)

Event Time Altitude Azimuth Distance (km) Brightness Sun altitude
Exits shadow 03:59:56 14° 194° (SSW) 1,177 2.7 -14.6°
Maximum altitude 04:01:34 20° 155° (SSE) 952 2.6 -14.3°
Drops below altitude 10° 04:04:00 10° 105° (ESE) 1,415 4.4 -14.0°
Sets 04:06:24 0° 88° (E) 2,273 6.2 -13.6°
